This demonstration page uses our WeatherBlox Daily Observations layout. Learn more.

Left ArrowRight Arrow

38.80484, -77.04692

Hourly Observations for November 12, 2020

Temp ( °F °C ) Dew Point ( °F °C ) Humidity (%) Winds ( mph kmh ) Pressure ( in mb ) Visibility ( mi km ) Precip ( " mm )
12:01 am 00:01 Cloudy with Rain 67 19.4 66 18.9 97 97 ESE 8 13 29.88 1012 1 1.60934 0.03 0.762
12:07 am 00:07 Cloudy with Rain 68 20 67 19.4 96 96 VRB 3 6 29.89 1012 3 4.82802 0.05 1.27
12:52 am 00:52 Cloudy with Light Rain 67 19.4 67 19.4 100 100 S 7 11 29.87 1012 8 12.87472 0.12 3.048
1:23 am 01:23 Cloudy with Rain 67 19.4 67 19.4 100 100 S 8 13 29.88 1012 6 9.65604 0.04 1.016
1:52 am 01:52 Cloudy with Rain 65 18.3 65 18.3 100 100 S 7 11 29.88 1012 5 8.0467 0.14 3.556
2:52 am 02:52 Cloudy with Heavy Rain 67 19.4 66 18.9 97 97 Calm 29.9 1012 3 4.82802 0.17 4.318
3:44 am 03:44 Cloudy with Light Rain 66 18.9 66 18.9 100 100 W 5 7 29.9 1012 10 16.0934 0.08 2.032
3:52 am 03:52 Mostly Cloudy with Light Rain 67 19.4 66 18.9 97 97 W 3 6 29.9 1012 9 14.48406 0.08 2.032
4:35 am 04:35 Cloudy with Light Rain 66 18.9 65 18.3 96 96 S 5 7 29.92 1013 3 4.82802 0.04 1.016
4:52 am 04:52 Cloudy with Light Rain 66 18.9 65 18.3 96 96 Calm 29.92 1013 7 11.26538 0.06 1.524
5:08 am 05:08 Cloudy with Rain 65 18.3 64 17.8 97 97 SE 5 7 29.91 1013 1.75 2.816345 0.02 0.508
5:26 am 05:26 Cloudy with Rain 65 18.3 64 17.8 97 97 E 5 7 29.9 1013 7 11.26538 0.06 1.524
5:52 am 05:52 Cloudy with Light Rain 64 17.8 64 17.8 100 100 E 8 13 29.85 1011 8 12.87472 0.11 2.794
6:41 am 06:41 Cloudy with Light Rain 66 18.9 65 18.3 96 96 W 13 20 29.93 1014 10 16.0934 0.001 0.001
6:52 am 06:52 Cloudy with Light Rain 67 19.4 65 18.3 93 93 W 10 17 29.94 1014 10 16.0934 0.001 0.001
7:48 am 07:48 Cloudy with Light Rain 66 19 64 18 94 94 W 14 22 29.97 1015 2 3.21868 0.001 0.001
7:52 am 07:52 Cloudy with Rain 65 18.3 63 17.2 93 93 W 13 20 29.97 1015 1.5 2.41401 0.03 0.762
8:14 am 08:14 Cloudy with Light Rain 63 17.2 61 16.1 93 93 NW 14 22 29.97 1015 1.5 2.41401 0.03 0.762
8:24 am 08:24 Cloudy with Light Rain 63 17.2 60 15.6 90 90 NW 7 11 29.96 1015 2.5 4.02335 0.04 1.016
8:32 am 08:32 Cloudy with Light Rain 62 16.7 60 15.6 93 93 NW 9 15 29.96 1015 4 6.43736 0.05 1.27
8:43 am 08:43 Cloudy with Light Rain 63 17.2 60 15.6 90 90 W 12 19 29.99 1016 4 6.43736 0.05 1.27
8:52 am 08:52 Cloudy with Light Rain 62 16.7 60 15.6 93 93 W 14 22 30 1016 5 8.0467 0.05 1.27
9:17 am 09:17 Cloudy with Light Rain 60 15.6 58 14.4 93 93 NNW 13 20 30 1016 2 3.21868 0.01 0.254
9:27 am 09:27 Cloudy with Light Rain 61 16.1 59 15 93 93 NNW 9 15 30 1016 3 4.82802 0.02 0.508
9:52 am 09:52 Cloudy with Light Rain 61 16.1 58 14.4 90 90 N 12 19 30 1016 6 9.65604 0.03 0.762
10:11 am 10:11 Cloudy with Light Rain 61 16.1 56 13.3 84 84 NNW 12 19 30.01 1016 10 16.0934 0.001 0.001
10:29 am 10:29 Cloudy with Light Rain 60 15.6 56 13.3 86 86 NW 13 20 30.02 1017 7 11.26538 0.01 0.254
10:42 am 10:42 Cloudy with Light Rain 60 15.6 57 13.9 90 90 NNW 13 20 30.01 1016 5 8.0467 0.02 0.508
10:52 am 10:52 Cloudy with Light Rain 60 15.6 57 13.9 90 90 NNW 13 20 30.01 1016 5 8.0467 0.04 1.016
11:02 am 11:02 Cloudy with Rain 58 14.4 56 13.3 93 93 NW 16 26 30.02 1017 4 6.43736 0.01 0.254
11:16 am 11:16 Cloudy with Rain 58 14.4 55 12.8 90 90 NNW 13 20 30.01 1016 4 6.43736 0.05 1.27
11:43 am 11:43 Cloudy with Light Rain 58 14.4 53 11.7 84 84 N 17 28 30.03 1017 7 11.26538 0.08 2.032
11:52 am 11:52 Cloudy 58 14.4 53 11.7 84 84 N 17 28 30.02 1017 7 11.26538 0.08 2.032
12:22 pm 12:22 Cloudy 58 14.4 52 11.1 81 81 N 16 26 30 1016 10 16.0934 0 0
12:52 pm 12:52 Cloudy 58 14.4 49 9.4 72 72 N 16 26 30.01 1016 10 16.0934 0 0
1:52 pm 13:52 Mostly Cloudy 57 13.9 47 8.3 69 69 NNE 17 28 29.94 1014 10 16.0934 0 0
2:52 pm 14:52 Cloudy 55 12.8 47 8.3 74 74 NNE 15 24 30 1016 10 16.0934 0 0
3:52 pm 15:52 Cloudy 53 11.7 48 8.9 83 83 NNE 14 22 30.01 1016 10 16.0934 0 0
4:52 pm 16:52 Cloudy 53 11.7 48 8.9 83 83 NNE 10 17 30.01 1016 10 16.0934 0 0
5:52 pm 17:52 Cloudy 52 11.1 44 6.7 75 75 NNE 15 24 30.06 1018 10 16.0934 0 0
6:14 pm 18:14 Cloudy 52 11.1 45 7.2 77 77 N 13 20 30.06 1018 10 16.0934 0 0
6:52 pm 18:52 Cloudy 52 11.1 44 6.7 75 75 NNE 12 19 30.06 1018 10 16.0934 0 0
7:52 pm 19:52 Cloudy 52 11.1 43 6.1 72 72 N 12 19 30.07 1018 10 16.0934 0 0
8:21 pm 20:21 Cloudy 52 11.1 43 6.1 72 72 N 14 22 30.08 1019 10 16.0934 0 0
8:52 pm 20:52 Cloudy 52 11.1 42 5.6 69 69 NNE 12 19 30.08 1019 10 16.0934 0 0
9:07 pm 21:07 Cloudy 52 11.1 43 6.1 72 72 NNE 10 17 30.08 1019 10 16.0934 0 0
9:52 pm 21:52 Cloudy 52 11.1 42 5.6 69 69 NNE 9 15 30.07 1018 10 16.0934 0 0
10:26 pm 22:26 Cloudy 52 11.1 42 5.6 69 69 N 9 15 30.08 1019 10 16.0934 0 0
10:52 pm 22:52 Cloudy 52 11.1 42 5.6 69 69 NNE 8 13 30.08 1019 10 16.0934 0 0
11:52 pm 23:52 Cloudy 51 10.6 42 5.6 71 71 NNE 7 11 30.07 1018 10 16.0934 0 0

Powered by AerisWeather